SBYC BurgeeSandy Bay Yacht Club
Weather Center


NOAA NWS Hourly Roundups by Site

NOAA NWS Hourly Roundups by Site

Regional Weather Roundup for Boston, MA

To Select Another Site Choose from List
Select Site:  

000
ASUS41 KBOX 212010
RWRBOX

REGIONAL WEATHER ROUNDUP
NATIONAL WEATHER SERVICE BOSTON/NORTON MA
400 PM EDT SUN JUL 21 2019

NOTE:  "FAIR" INDICATES FEW OR NO CLOUDS BELOW 12,000 FEET WITH NO
SIGNIFICANT WEATHER AND/OR OBSTRUCTIONS TO VISIBILITY.

MAZALL-212100-
EASTERN MASSACHUSETTS

CITY           SKY/WX    TMP DP  RH WIND       PRES   REMARKS
BOSTON         FAIR      97  66  36 W16G25    29.68S HX 100
BEVERLY        FAIR      93  69  45 W13G22    29.68R HX  98
LAWRENCE       FAIR      92  69  47 W13G18    29.70R HX  97
BEDFORD        FAIR      96  67  38 W13       29.69S HX 100
BLUE HILL        N/A     91  72  53 W16G28    29.72S HX  98
NORWOOD        FAIR      97  70  41 W12       29.70R HX 103
MARSHFIELD     FAIR      95  72  46 W10G18    29.69S HX 103
PLYMOUTH       NOT AVBL
TAUNTON        FAIR      96  70  42 W10G23    29.70R HX 102
NEW BEDFORD    FAIR      94  76  55 SW13      29.70S HX 106
$$

MAZALL-212100-
CAPE COD AND THE ISLANDS

CITY           SKY/WX    TMP DP  RH WIND       PRES   REMARKS
FALMOUTH       FAIR      90  75  62 SW17G25   29.71S HX 100
HYANNIS        FAIR      93  73  52 W16G25    29.70R HX 102
CHATHAM        FAIR      90  76  63 SW8G18    29.72R HX 101
PROVINCETOWN   FAIR      90  73  57 W12       29.71R HX  98
NANTUCKET      FAIR      79  73  82 SW15      29.72F
MARTHAS VNYRD  FAIR      89  74  60 W13G23    29.73R HX  98
$$

MAZALL-212100-
CENTRAL AND WESTERN MASSACHUSETTS

CITY           SKY/WX    TMP DP  RH WIND       PRES   REMARKS
WORCESTER      FAIR      89  69  51 W16G23    29.78R HX  93
FITCHBURG      FAIR      95  65  37 W14G21    29.73S HX  97
ORANGE         FAIR      93  65  39 W13G23    29.76S HX  95
SPRINGFIELD    MOSUNNY   94  69  44 NW13      29.73R HX  98
WESTFIELD      FAIR      97  69  40 NW15G21   29.74R HX 103
NORTH ADAMS    FAIR      86  66  51 W12G22    29.79R
PITTSFIELD     FAIR      88  68  51 NW9G20    29.81S HX  91
$$

RIZALL-212100-
RHODE ISLAND

CITY           SKY/WX    TMP DP  RH WIND       PRES   REMARKS
PROVIDENCE     FAIR      96  72  45 W16G28    29.72S HX 104
NEWPORT        FAIR      92  71  50 SW8       29.73R HX  98
BLOCK ISLAND   FAIR      88  74  63 W12       29.76R HX  96
SMITHFIELD     PTSUNNY   91  73  55 W12       29.74S HX  99
WESTERLY       FAIR      93  75  55 SW10G21   29.75R HX 104
$$

CTZALL-212100-
CONNECTICUT

CITY           SKY/WX    TMP DP  RH WIND       PRES   REMARKS
BRADLEY INTL   FAIR      99  68  36 W13       29.72S HX 104
HARTFORD       FAIR      97  70  41 SW15      29.71S HX 103
BRIDGEPORT     FAIR      92  74  55 SW12      29.74F HX 101
DANBURY        FAIR      94  69  44 W10       29.78F HX  99
GROTON         FAIR      94  73  50 W13       29.73S HX 103
NEW HAVEN      FAIR      93  75  55 SW10G17   29.74F HX 104
CHESTER        NOT AVBL
MERIDEN        FAIR      98  69  38 W13G20    29.73F HX 104
WILLIMANTIC    FAIR      95  72  47 W9        29.73S HX 103
OXFORD         FAIR      93  72  50 W9        29.79F HX 101
$$

MEZ002-015-021-024-NHZ003-005-008-011-012-014-VTZ005-008-212100-
NORTHERN NEW ENGLAND

CITY           SKY/WX    TMP DP  RH WIND       PRES   REMARKS
PORTLAND ME    PTSUNNY   92  67  43 NW14      29.65R HX  95
BANGOR ME      FAIR      79  68  69 N9        29.67R
CONCORD NH     PTSUNNY   92  67  43 NW12      29.70R HX  95
MANCHESTER NH  PTSUNNY   95  68  41 W8        29.68S HX  99
NASHUA NH      FAIR      93  71  48 W10G16    29.70S HX 100
PORTSMOUTH NH  MOSUNNY   94  65  38 W10       29.66R HX  96
JAFFREY NH     FAIR      90  65  43 W9G18     29.77S HX  92
KEENE NH       FAIR      91  69  48 W12G21    29.74R HX  96
BURLINGTON VT  PTSUNNY   87  62  43 N8        29.73S
MT. WASHINGTON FOG       55  55 100 NW46G53     N/A  VSB 0
$$

NYZ052-076-212100-
EASTERN NEW YORK

CITY           SKY/WX    TMP DP  RH WIND       PRES   REMARKS
ALBANY         FAIR      90  65  43 W16G24    29.78S HX  92
NEW YORK CITY  PTSUNNY   99  71  40 W13G20    29.75F HX 107
$$

ANZALL-212100-
MARINE OBSERVATIONS

STATION/POSITION TIME  TEMP    WIND        PRES    VSBY  WAVE
                       AIR SEA DIR/SP/G                  HT/PER
                 (UTC) (F)     (DEG/KT/KT) (MB)    (MI)  (FT/S)
BOSTON BUOY      1950   81 73  260/ 12/ 16 1003.9R         1/ 3
BUZZARDS BAY     NOT AVBL
NANTUCKET SOUND  1940      77                N/A           1/ 3
MASS BAY-STELLWA 1904   76 69  250/  6/  8 1004.2R  1 7/8  2/ 8
ISLE OF SHOALS   1900   89     290/ 16/ 17 1003.6R
S OF BLOCK IS    2000      72                N/A           3/ 7
$$

......................KEY.........................
  SKY/WX - SKY CONDITION/PRESENT WEATHER
  TMP    - TEMPERATURE IN FAHRENHEIT
  DWPT   - DEWPOINT IN FAHRENHEIT
  RH     - RELATIVE HUMIDITY IN PERCENT
  WIND   - DIRECTION AND SPEED IN MPH
  PRES   - MEAN SEA LEVEL PRESSURE IN INCHES OF HG
  WCI    - WIND CHILL INDEX
  VSB    - VISIBILITY IN MILES
  HX     - HEAT INDEX
  TC     - TEMPERATURE IN CELSIUS
  VRB    - VARIABLE WIND DIRECTION
  N/A    - NOT AVAILABLE


 

View Past Reports for Boston, MA.

Products Courtesy of NOAA-NWS
NWS Information Parsing Script by Ken True at Saratoga Weather - Script by SE Lincoln Weather.

 



home

Copyright © Sandy Bay Yacht Club. All rights reserved.